Probability
3 8 14 13 10 8 8 10 11 10 8 6 5 3 1 1 1 1 2 2 2 2 2 1 0 0 0 0 1 3 5 4 2 2 2 1 2 2 1 1 1 1 0
4 9 14 14 11 8 7 8 10 9 8 6 5 3 1 0 0 1 1 2 2 1 1 0 0 0 0 0 1 3 4 3 1 1 1 1 2 2 1 1 1 1 1
6 9 13 14 12 9 8 8 9 9 8 7 6 4 1 0 0 0 1 1 1 0 0 0 0 0 0 0 1 2 3 2 1 0 0 1 1 1 0 1 2 2 1
8 9 12 13 12 10 11 11 11 11 9 8 7 6 3 0 0 0 0 0 0 0 0 0 0 0 0 0 0 1 1 1 0 0 0 0 0 0 0 1 2 2 1
9 9 12 14 13 13 13 13 13 13 12 10 9 9 6 2 0 0 0 0 0 0 0 0 0 0 0 0 0 0 0 0 0 0 0 0 0 0 1 1 2 2 1
7 8 12 15 15 15 15 15 15 16 15 13 11 11 9 5 2 1 2 1 0 0 0 0 0 0 0 0 0 0 0 0 0 0 0 0 0 0 1 2 2 2 2
4 6 10 14 15 14 15 16 17 17 17 16 14 13 11 7 4 3 3 2 1 1 1 0 0 0 0 0 0 0 0 0 0 0 0 0 0 1 1 1 1 2 2
4 5 9 12 12 12 14 17 16 15 16 17 16 14 12 8 5 4 4 4 2 2 1 0 0 0 0 1 1 1 1 0 0 0 0 0 0 1 1 1 1 1 2
4 6 9 9 9 11 13 15 14 12 14 16 16 14 11 8 6 6 5 4 3 3 2 1 0 0 0 1 2 2 1 0 0 0 0 0 0 0 1 2 1 1 2
4 6 9 10 8 9 11 13 12 12 13 15 14 13 11 7 6 5 4 3 4 4 3 2 2 1 0 1 1 1 1 0 0 0 0 0 0 0 1 2 1 1 2
7 8 10 11 9 8 9 10 11 11 12 12 11 11 10 8 6 6 5 4 5 5 5 5 4 2 1 0 0 0 0 0 0 0 0 0 0 0 0 1 1 0 1
14 13 12 13 12 11 10 9 9 9 10 8 8 8 9 9 8 8 8 7 5 5 5 5 5 3 1 0 0 0 0 0 0 0 0 0 0 0 0 0 0 0 0
18 16 15 16 16 15 12 10 10 9 8 7 7 8 9 9 9 10 10 9 6 4 3 3 4 3 1 0 0 0 0 0 0 0 0 0 0 0 0 0 0 0 0
19 19 19 21 22 21 17 14 12 11 9 9 9 8 8 9 10 10 10 9 7 5 4 3 3 3 2 1 1 2 1 0 0 0 0 0 0 0 0 0 0 0 0
19 22 25 26 27 26 24 21 18 14 13 14 12 8 7 9 11 11 10 10 9 8 7 5 3 2 2 2 2 2 2 1 0 1 1 1 1 1 0 0 0 0 0
21 24 27 28 29 28 27 25 21 17 17 16 13 9 7 9 12 13 12 11 10 10 10 8 5 2 2 2 2 2 3 2 2 2 2 2 2 2 1 0 0 0 0
21 23 24 24 25 25 25 23 19 18 17 13 10 10 11 11 13 15 14 12 11 11 12 11 7 5 4 3 3 2 4 4 3 3 3 3 3 2 1 0 0 0 0
20 23 24 22 22 23 22 20 18 17 16 11 8 10 12 13 15 17 16 13 11 11 13 12 9 8 8 6 4 3 5 6 5 3 3 3 3 2 1 1 1 1 1
20 23 27 28 27 26 23 20 18 17 15 12 9 9 12 14 15 17 17 15 13 12 13 12 10 10 10 7 5 4 6 6 5 3 2 3 2 1 1 1 2 2 2
21 25 31 33 33 31 27 22 18 16 15 14 12 11 12 14 14 16 17 17 17 16 14 12 11 10 8 7 5 4 4 4 3 1 1 1 1 1 0 1 2 3 3
26 28 31 34 35 36 33 27 22 19 17 16 16 15 15 15 15 16 17 18 18 16 15 13 11 8 7 7 5 3 2 2 2 1 0 0 0 0 0 1 2 4 4
30 29 30 32 34 36 35 33 28 24 20 19 19 18 16 15 14 14 15 17 17 16 14 13 12 8 5 6 5 3 1 2 2 1 0 0 1 2 1 1 3 5 5
30 29 29 31 32 33 35 35 31 27 23 21 20 18 15 13 11 11 14 17 18 15 12 12 11 8 6 5 5 4 2 2 3 2 1 1 3 5 4 3 4 6 6
26 26 27 30 32 33 35 35 32 27 24 22 20 17 14 12 10 10 14 17 17 14 10 10 9 8 6 6 6 5 4 4 5 4 3 3 5 7 7 6 7 8 7
22 23 25 29 33 35 34 33 30 28 25 22 19 18 17 15 11 11 13 16 16 13 10 10 11 9 6 6 6 6 5 5 6 6 5 5 5 6 6 7 8 9 8
21 23 26 30 34 35 32 29 29 28 24 21 19 19 19 18 13 11 13 15 14 11 9 11 13 11 7 6 7 6 5 6 6 6 6 6 5 5 5 6 7 8 8
Wind_Speed
9 13 14 10 9 9 9 9 9 9 9 9 10 10 10 10 10 10 10 11 11 12 13 13 13 13 13 13 13 13 12 13 13 12 12 12 13 12 11 11 10 10 13
11 14 15 11 10 9 9 9 9 9 9 9 9 10 10 10 10 9 10 11 11 12 13 13 13 13 13 12 12 11 11 11 11 11 11 12 12 11 10 8 6 9 12
12 14 14 11 10 10 9 9 9 9 9 9 9 9 9 9 9 9 9 10 11 12 12 12 12 12 12 12 11 10 11 10 9 8 8 8 10 11 10 9 9 11 11
12 12 12 13 11 10 10 9 9 9 10 9 9 9 9 9 9 9 10 10 11 11 11 12 12 12 11 11 10 10 10 9 7 6 5 7 8 12 10 10 10 10 10
11 11 13 13 11 10 10 10 9 9 9 9 9 9 9 8 8 8 9 10 10 10 11 11 11 11 11 10 10 9 8 8 6 4 6 6 7 10 10 9 9 9 9
12 11 14 12 11 10 10 10 10 9 9 9 8 8 8 8 8 8 8 9 9 10 10 10 10 10 10 9 9 8 7 6 5 5 6 6 7 9 9 8 8 8 7
11 10 13 11 10 9 9 9 9 9 9 8 8 8 8 7 7 7 7 8 9 9 9 9 9 9 9 8 8 7 7 4 2 4 5 5 8 9 8 7 7 7 7
10 10 12 12 10 9 8 8 8 8 8 8 7 7 7 7 7 7 7 7 8 8 9 8 8 8 8 7 7 7 5 4 3 4 4 5 8 7 6 7 6 6 6
10 9 9 11 11 10 8 7 7 8 7 7 7 7 7 7 7 6 6 7 7 8 8 8 8 7 7 7 7 6 4 2 2 3 4 5 7 7 6 6 5 6 6
9 8 8 8 8 9 10 9 8 7 7 7 7 7 7 8 7 7 7 7 7 7 7 7 7 8 7 6 6 5 4 5 3 4 4 6 7 6 6 5 5 6 6
8 7 7 8 7 7 7 9 9 9 8 8 8 7 7 6 7 7 6 7 6 7 7 7 7 7 7 7 6 5 5 2 3 3 4 8 6 5 5 5 5 5 5
10 8 7 7 7 6 5 6 5 6 6 6 5 6 5 4 3 4 8 7 7 6 7 7 7 8 6 5 7 7 3 3 2 3 6 8 5 5 5 4 5 4 4
9 8 7 7 6 6 4 4 3 3 4 5 5 5 4 4 4 4 4 6 6 7 6 8 8 4 4 3 2 3 2 1 2 3 6 7 5 5 5 4 4 4 4
8 8 7 7 7 5 4 4 4 3 3 4 5 5 5 3 3 3 3 4 4 3 3 3 3 4 4 4 3 3 3 1 2 2 6 7 5 4 4 4 3 4 4
8 8 7 7 6 6 5 3 4 4 4 4 4 5 4 4 4 4 3 3 3 3 4 3 3 4 4 4 3 3 2 2 1 2 4 7 5 4 3 3 2 3 3
8 8 7 7 6 6 5 4 3 3 3 3 3 4 5 4 3 4 4 3 3 3 3 3 4 3 3 2 3 2 2 2 2 1 2 6 6 4 3 2 2 2 3
7 7 7 7 6 6 5 4 3 3 3 3 3 4 5 5 4 4 4 4 3 4 4 3 4 3 3 3 3 3 2 2 2 1 1 2 5 7 5 3 2 2 3
7 7 6 6 7 7 5 4 3 3 3 3 3 4 5 5 5 4 4 4 4 4 4 3 3 3 3 3 2 2 2 2 2 2 1 2 2 3 6 5 3 2 3
7 7 7 7 7 7 6 4 4 3 3 3 3 3 4 5 6 5 4 3 4 4 4 4 3 3 3 2 2 2 2 2 2 2 1 1 1 1 2 6 5 3 2
7 7 7 7 7 6 6 5 4 4 4 4 3 3 5 5 6 5 4 4 5 4 4 3 3 2 2 2 2 2 2 2 2 2 2 2 2 2 2 2 4 5 5
7 7 8 7 7 6 5 5 5 5 4 4 4 4 5 6 6 5 4 5 5 4 4 5 4 4 3 2 2 2 3 3 2 2 2 1 2 2 2 2 1 1 3
7 7 7 8 7 8 6 5 4 4 4 4 3 3 4 5 6 6 5 5 5 4 5 5 4 3 3 3 2 2 3 4 4 3 3 3 2 2 2 2 2 1 2
6 6 6 7 7 7 7 5 4 4 4 4 4 4 4 4 5 5 6 5 5 5 5 6 5 5 3 3 2 2 2 2 2 4 3 2 2 1 2 1 2 2 2
5 5 6 7 6 6 7 6 7 5 5 5 4 4 4 5 5 5 5 5 5 4 5 6 6 4 4 4 3 2 2 2 2 2 3 3 3 3 2 2 1 2 2
5 5 6 6 6 6 6 6 6 5 4 4 4 5 5 5 5 6 5 5 5 4 5 5 5 5 4 4 3 3 2 2 4 3 2 2 2 2 2 2 2 2 2
5 5 6 6 6 6 6 6 6 6 5 5 5 5 5 4 5 6 5 5 5 4 5 5 5 6 4 3 3 3 3 3 3 2 2 3 2 2 2 2 3 2 2
Wind_Direction
148 135 136 145 140 137 135 132 129 126 125 123 121 119 115 114 111 109 109 104 100 103 105 108 112 112 109 107 105 103 101 102 101 107 116 121 122 121 122 130 141 126 119
140 135 139 145 142 140 138 135 132 130 126 124 122 121 118 114 112 110 109 107 106 106 108 109 110 112 111 108 104 103 102 104 105 109 119 125 124 123 123 121 107 110 123
138 137 147 146 144 142 139 137 135 132 129 126 124 123 121 117 114 111 110 109 109 108 110 111 113 113 112 112 111 108 106 107 110 119 135 127 121 121 122 118 114 121 125
139 143 145 143 146 144 140 138 138 135 132 130 128 126 124 121 117 115 112 111 111 112 113 113 113 114 115 115 113 110 110 112 120 139 134 113 115 117 121 121 120 122 125
142 144 137 148 148 147 143 140 140 137 135 133 131 128 126 124 121 118 117 115 113 112 113 115 117 117 115 115 114 113 117 124 135 149 102 105 105 118 122 123 125 126 128
149 150 138 150 149 149 147 144 142 141 139 137 135 131 128 126 124 121 120 119 117 115 117 118 118 118 118 118 120 121 124 140 169 123 107 113 114 122 125 126 127 127 131
149 148 140 147 148 148 148 146 144 142 142 139 136 134 130 127 123 123 123 121 121 121 121 120 118 119 120 124 131 132 135 158 171 108 116 112 104 119 129 133 134 135 135
148 145 138 146 148 149 150 149 145 141 140 138 135 135 134 130 128 126 123 122 124 124 122 120 118 119 120 124 131 133 145 200 146 114 110 105 105 121 129 133 136 137 140
148 147 148 157 157 153 150 153 147 142 141 138 137 136 136 135 134 134 129 128 128 128 126 125 122 121 119 120 125 129 136 212 170 124 114 97 108 122 126 130 133 138 141
151 152 156 160 161 167 160 155 152 148 144 144 144 144 146 150 151 151 149 137 136 132 130 129 128 127 125 125 126 135 164 217 152 119 105 102 112 120 125 124 125 128 132
157 161 167 163 164 170 164 153 164 161 156 164 161 160 178 174 162 166 137 133 141 138 135 134 136 137 142 139 137 162 205 193 124 100 91 97 115 123 123 121 120 120 126
168 171 174 167 169 171 165 158 173 173 167 180 165 174 181 163 165 149 133 141 145 145 145 141 147 165 183 155 156 196 193 162 118 115 100 105 116 127 126 122 120 122 126
170 173 174 172 171 172 167 168 169 171 167 177 170 179 181 179 171 165 158 157 164 171 166 158 176 170 155 141 160 153 151 161 125 115 107 114 121 127 125 118 121 126 129
173 176 175 173 172 175 171 170 176 178 173 177 173 189 183 180 178 171 168 162 170 168 164 163 157 147 147 146 148 143 149 141 112 102 110 122 129 134 133 125 126 132 142
175 176 173 179 174 173 176 187 181 182 183 175 178 186 189 181 180 170 165 171 173 162 167 161 153 148 153 153 152 136 123 107 106 115 120 124 131 137 141 136 129 132 142
179 176 170 177 175 178 179 183 182 183 180 186 181 182 195 190 176 175 172 170 169 165 158 162 153 159 157 148 146 136 147 136 124 161 139 136 142 148 152 155 152 151 145
178 173 174 180 175 176 181 189 184 176 176 182 178 185 195 194 181 187 174 177 168 160 160 166 157 167 166 165 154 154 158 153 136 144 161 151 150 156 158 157 154 153 152
177 173 177 185 178 179 184 188 181 178 179 181 186 186 196 194 190 192 184 178 168 172 170 167 178 173 165 171 161 170 153 155 163 172 179 176 160 147 153 151 154 157 156
180 176 176 185 184 183 182 176 177 175 177 184 193 191 192 196 197 197 188 172 177 175 176 184 158 178 167 177 176 172 174 159 167 165 143 168 139 175 155 147 162 164 166
178 176 180 183 180 178 177 173 179 177 182 185 189 191 194 196 198 201 187 179 184 174 174 171 159 167 173 196 211 164 180 166 180 155 185 162 172 196 196 169 179 171 174
176 178 183 187 179 181 182 182 184 181 185 184 184 186 196 198 194 195 192 178 192 178 176 175 176 166 179 180 197 185 174 174 173 189 192 192 178 183 189 198 213 200 172
176 180 183 188 186 190 188 190 191 183 188 182 179 180 194 197 197 191 192 192 189 180 175 177 180 185 176 182 207 212 194 177 187 180 188 192 194 186 188 190 176 205 247
172 179 179 185 189 194 188 186 183 178 185 183 183 181 189 192 188 190 185 195 191 194 179 184 185 195 189 190 216 247 238 205 165 170 189 185 198 217 210 185 197 206 225
176 178 181 181 182 187 190 194 189 191 192 190 190 181 185 189 183 177 180 185 191 191 179 192 184 194 199 197 187 240 296 346 258 173 192 184 197 217 228 251 223 207 220
176 177 179 176 179 182 187 188 194 205 204 192 190 183 189 181 182 178 179 181 187 193 188 196 177 198 199 210 200 198 214 220 251 249 210 200 212 218 218 235 250 240 228
171 169 170 174 178 181 188 191 199 203 205 197 195 188 189 177 179 183 186 184 193 197 190 196 196 196 204 210 227 217 218 225 234 242 236 226 223 212 220 233 238 231 233